This is the latest recevied weather packets stored in our database for station/object KJ7IVE-13. If no packets are shown the sender has not sent any weather packets the latest 10 day(s).
| Time | Temp. | Humidity | Pressure | Rain* | Wind** | Luminosity | Snow |
|---|---|---|---|---|---|---|---|
| 1777740875 | 18.33° C | 10% | 1022.3 hPa | 0 mm | - | 722 W/m² | - |
| 1777740572 | 18.33° C | 10% | 1022.4 hPa | 0 mm | - | 698 W/m² | - |
| 1777739661 | 17.78° C | 10% | 1022.4 hPa | 0 mm | - | 679 W/m² | - |
| 1777739359 | 17.78° C | 10% | 1022.3 hPa | 0 mm | - | 673 W/m² | - |
| 1777739056 | 17.78° C | 10% | 1022.5 hPa | 0 mm | - | 673 W/m² | - |
| 1777738753 | 18.89° C | 10% | 1022.4 hPa | 0 mm | - | 659 W/m² | - |
| 1777738449 | 17.78° C | 10% | 1022.2 hPa | 0 mm | - | 614 W/m² | - |
| 1777738147 | 17.22° C | 10% | 1022.2 hPa | 0 mm | - | 573 W/m² | - |
| 1777737544 | 17.22° C | 10% | 1022.5 hPa | 0 mm | - | 494 W/m² | - |
| 1777737241 | 16.67° C | 10% | 1022.3 hPa | 0 mm | - | 474 W/m² | - |
| 1777736937 | 16.67° C | 10% | 1022.3 hPa | 0 mm | - | 405 W/m² | - |
| 1777735716 | 15.56° C | 10% | 1022.3 hPa | 0 mm | - | 368 W/m² | - |
| 1777735414 | 15.56° C | 10% | 1022.4 hPa | 0 mm | - | 336 W/m² | - |
| 1777735111 | 15° C | 10% | 1022.5 hPa | 0 mm | - | 322 W/m² | - |
| 1777734808 | 15° C | 10% | 1022.5 hPa | 0 mm | - | 308 W/m² | - |
| 1777734506 | 14.44° C | 10% | 1022.4 hPa | 0 mm | - | 285 W/m² | - |
| 1777733898 | 14.44° C | 10% | 1022.4 hPa | 0 mm | - | 262 W/m² | - |
| 1777733291 | 13.33° C | 10% | 1022.4 hPa | 0 mm | - | 279 W/m² | - |
| 1777732684 | 12.78° C | 10% | 1022.7 hPa | 0 mm | - | 212 W/m² | - |
| 1777732381 | 13.33° C | 10% | 1022.5 hPa | 0 mm | - | 227 W/m² | - |
| 1777732079 | 12.78° C | 10% | 1022.5 hPa | 0 mm | - | 183 W/m² | - |
| 1777731776 | 12.78° C | 10% | 1022.4 hPa | 0 mm | - | 173 W/m² | - |
| 1777731473 | 12.78° C | 10% | 1022.6 hPa | 0 mm | - | 169 W/m² | - |
| 1777731171 | 12.22° C | 10% | 1022.6 hPa | 0 mm | - | 153 W/m² | - |
| 1777730869 | 12.78° C | 10% | 1022.5 hPa | 0 mm | - | 136 W/m² | - |
* Rain latest hour (hover to see other rain measurements)
** Current wind speed in m/s (hover to see current wind gust speed)